Location: *
(43.9905°S, 176.4941°W)
Time: 17:07:13
(UTC+00:00)

Resurs 01 Rocket - Pass Details

Date: 08 December 2019
Orbit: 635 x 643 km, 98.0° (Epoch: 28 January)

Event Time Altitude Azimuth Distance (km) Brightness Sun altitude
Rises 09:39:48 0° 173° (S) 2,991 6.0 -18.0°
Reaches altitude 10° 09:42:06 10° 179° (S) 2,072 5.2 -18.2°
Maximum altitude 09:46:24 45° 251° (WSW) 893 2.7 -18.6°
Enters shadow 09:50:14 12° 321° (NW) 1,882 3.8 -18.9°
